Regional Weather Roundup
Issued by NWS

Home | Current Version | Previous Version | Graphics & Text | Print | Product List | Glossary Off
Versions: 1 2 3 4 5 6 7 8 9 10 11 12 13 14 15 16 17 18 19 20 21 22 23 24 25 26 27 28 29 30 31 32 33 34 35 36 37 38 39 40 41 42 43 44 45 46 47 48 49 50

000
ASUS43 KDTX 301101
RWRMI
MICHIGAN HOURLY REGIONAL WEATHER ROUNDUP
NATIONAL WEATHER SERVICE DETROIT/PONTIAC MI
700 AM EDT TUE JUN 30 2015

NOTE: "FAIR" INDICATES FEW OR NO CLOUDS BELOW 12,000 FEET WITH NO
SIGNIFICANT WEATHER AND/OR OBSTRUCTION TO VISIBILITY.

MIZ047>049-052>055-059>063-066>070-074>076-081>083-301200-
SOUTHEAST LOWER MICHIGAN

CITY           SKY/WX    TMP DP  RH WIND       PRES   REMARKS
ADRIAN         CLOUDY    62  60  93 W3        29.82R
ALMA           CLOUDY    59  58  97 CALM      29.82R
ANN ARBOR      LGT RAIN  62  61  96 CALM      29.80S VSB 1
BAD AXE        CLOUDY    56  55  95 CALM      29.82S
CARO           CLOUDY    57  56  97 CALM      29.82R
DETROIT CITY   CLOUDY    63  59  87 S5        29.81R
DETROIT        CLOUDY    64  60  87 CALM      29.81R FOG
FLINT          CLOUDY    64  58  80 CALM      29.81R
GROSSE ILE       N/A     63  61  94 CALM      29.79R
HILLSDALE      CLOUDY    60  60 100 CALM      29.82R FOG
HOWELL         CLOUDY    61  60  96 CALM      29.81S FOG

CITY           SKY/WX    TMP DP  RH WIND       PRES   REMARKS
JACKSON        CLOUDY    61  58  90 CALM      29.81R
LAMBERTVILLE   CLOUDY    63  60  88 CALM      29.82R FOG
LANSING        CLOUDY    62  58  86 CALM      29.81R
LAPEER         CLOUDY    59  58  94 CALM      29.82R FOG
MONROE         CLOUDY    64  62  94 CALM      29.79S
MT. CLEMENS    CLOUDY    63  60  90 E6        29.79R
PONTIAC        CLOUDY    63  58  83 CALM      29.80R
PORT HOPE        N/A     59  56  89 CALM      29.80S
PORT HURON     CLOUDY    59  59 100 CALM      29.81R
TRI CITIES     CLOUDY    61  57  87 CALM      29.82R
MIDLAND        CLOUDY    57  56  96 CALM      29.81R
TROY           CLOUDY    65  60  86 CALM      29.82R
SAGINAW HB     CLOUDY    59  59 100 CALM      29.81R
$$
MIZ043>046-050>051-056>058-064>065-071>073-077>080-301200-
SOUTHWEST LOWER MICHIGAN

CITY           SKY/WX    TMP DP  RH WIND       PRES   REMARKS
BATTLE CREEK   CLOUDY    63  59  87 S5        29.81R
BENTON HARBOR  CLOUDY    62  61  96 S6        29.77S FOG
BIG RAPIDS     CLOUDY    55  52  90 CALM      29.80S FOG
COLDWATER      CLOUDY    60  60  97 CALM      29.81R
FREMONT        FAIR      59  58  97 E3        29.78S
HOLLAND        CLOUDY    61  58  90 SE3       29.78S
GRAND RAPIDS   MOCLDY    59  57  93 CALM      29.79S
IONIA          CLOUDY    57  57  99 CALM      29.80S FOG
KALAMAZOO      CLOUDY    62  58  86 S3        29.81R
LUDINGTON      DRIZZLE   62  59  91 CALM      29.78S
MARSHALL       MOCLDY    59  58  97 CALM      29.80R FOG
MOUNT PLEASANT CLOUDY    57  56  97 CALM      29.81R FOG
MUSKEGON       LGT RAIN  62  58  86 SE5       29.78R
SOUTH HAVEN    CLOUDY    61  59  93 S3        29.78S FOG
$$
MIZ016>042-301200-
NORTHERN LOWER MICHIGAN

CITY           SKY/WX    TMP DP  RH WIND       PRES   REMARKS
ALPENA         CLEAR     55  52  89 CALM      29.82R
BEAVER ISLAND  CLOUDY    60  59  97 CALM      29.79R FOG
BELLAIRE       CLOUDY    61  58  91 CALM      29.80S
CADILLAC       CLOUDY    54  53  95 CALM      29.81S
CHARLEVOIX     CLOUDY    61  59  94 CALM      29.82S
FRANKFORT      LGT RAIN  64  58  79 CALM      29.78S
GAYLORD        MOCLDY    59  57  93 CALM      29.82R
GRAYLING       MOCLDY    50  49  94 CALM      29.82S
HARBOR SPRINGS CLOUDY    60  56  88 CALM      29.80R
HOUGHTON LAKE  PTCLDY    53  52  96 CALM      29.82R
MANISTEE       CLOUDY    61  55  82 E5        29.80R
OSCODA         MOCLDY    53  52  97 CALM      29.82R FOG
PELLSTON       CLOUDY    59  56  89 CALM      29.80R
ROGERS CITY    PTCLDY    61  57  85 SW7       29.82R
TRAVERSE CITY  CLOUDY    62  58  86 CALM      29.78S
$$
MIZ007>008-015-301200-
EASTERN UPPER MICHIGAN

CITY           SKY/WX    TMP DP  RH WIND       PRES   REMARKS
KINROSS        CLOUDY    61  57  88 S3        29.80R
MACKINAC ISLAN CLOUDY    60  55  84 CALM      29.80R
NEWBERRY       CLOUDY    58  58  99 CALM      29.78S FOG
S. S. MARIE    CLOUDY    61  54  77 CALM      29.80R
MUNISING         N/A     50  46  86 W8        29.82R
$$
MIZ004>006-011>014-085-301200-
CENTRAL UPPER MICHIGAN

CITY           SKY/WX    TMP DP  RH WIND       PRES   REMARKS
MANISTIQUE     FOG       59  58  97 CALM      29.78R VSB 1/4
ESCANABA       CLOUDY    61  57  88 NW5       29.78R
MENOMINEE      CLOUDY    61  57  88 N5        29.78R
SAWYER-GWINN   RAIN      48  46  93 N9        29.83R
$$
MIZ001>003-009>011-084-301200-
WESTERN UPPER MICHIGAN

CITY           SKY/WX    TMP DP  RH WIND       PRES   REMARKS
IRON MOUNTAIN  CLOUDY    56  54  93 N13       29.82R
HOUGHTON       CLOUDY    49  45  86 N9        29.89R
COPPER HARBOR    N/A     46  43  89 NE7       29.89R
IRONWOOD       CLOUDY    52  52 100 NE8       29.90R
$$

ABBREVIATIONS USED IN REMARKS
   TC - TEMPERATURE IN CELSIUS
  WCI - WIND CHILL INDEX
   HX - HEAT INDEX
  VSB - VISIBILITY




USA.gov is the U.S. government's official web portal to all federal, state and local government web resources and services.